KN4CI-1 Weather Reports


Display with metric or nautical units.
time (UTC)temp
F
wind
direction
speed
MPH
gust
MPH
rain 1hr
in
rain 24hr
in
rain mn
in
humidity
%
barometer
mb
20260906121616 75 0 0.0 0.0 0.00 0.00 0.00 30 1013.6
20260906114609 74 0 0.0 0.0 0.00 0.00 0.00 30 1013.6
20260906114103 74 0 0.0 0.0 0.00 0.00 0.00 30 1013.6
20260906113104 74 0 0.0 0.0 0.00 0.00 0.00 30 1013.6
20260906112559 74 0 0.0 0.0 0.00 0.00 0.00 30 1014.6
20260906111600 74 0 0.0 0.0 0.00 0.00 0.00 30 1014.6
20260906111055 74 3 0.0 0.0 0.00 0.00 0.00 31 1013.6
20260906103959 74 85 0.0 0.0 0.00 0.00 0.00 27 1013.6
20260906100948 74 85 0.0 0.0 0.00 0.00 0.00 25 1013.6
20260906094945 74 85 0.0 0.0 0.00 0.00 0.00 24 1013.6
20260906092935 75 85 0.0 0.0 0.00 0.00 0.00 22 1013.6
20260906090418 76 85 0.0 0.0 0.00 0.00 0.00 21 1013.6
20260906085411 77 85 0.0 0.0 0.00 0.00 0.00 21 1013.6
20260906083859 77 70 0.0 0.0 0.00 0.00 0.00 21 1013.6
20260906083400 77 84 0.0 0.0 0.00 0.00 0.00 23 1013.6
20260906072321 76 232 0.0 0.0 0.00 0.00 0.00 29 1013.6
20260906070318 76 232 0.0 0.0 0.00 0.00 0.00 29 1013.6
20260906065315 77 232 0.0 0.0 0.00 0.00 0.00 28 1013.6
20260906063809 77 232 0.0 0.0 0.00 0.00 0.00 29 1013.6
20260906062809 78 232 0.0 0.0 0.00 0.00 0.00 29 1013.6
20260906060254 77 146 0.0 0.0 0.00 0.00 0.00 30 1013.6
20260906055750 77 169 0.0 0.0 0.00 0.00 0.00 30 1013.6
20260906055245 77 156 0.0 0.0 0.00 0.00 0.00 30 1012.6
20260906054746 77 154 0.0 0.0 0.00 0.00 0.00 30 1012.6
20260906053737 77 177 0.0 0.0 0.00 0.00 0.00 30 1012.6
20260906053237 77 116 0.0 0.0 0.00 0.00 0.00 30 1012.6
20260906052235 77 120 0.0 0.0 0.00 0.00 0.00 30 1012.6
20260906051735 77 120 0.0 0.0 0.00 0.00 0.00 30 1012.6
20260906051235 77 120 0.0 0.0 0.00 0.00 0.00 30 1012.6
20260906050731 77 120 0.0 0.0 0.00 0.00 0.00 30 1013.6
20260906050231 77 119 0.0 0.0 0.00 0.00 0.00 30 1013.6
20260906045227 77 120 0.0 0.0 0.00 0.00 0.00 30 1013.6
20260906044727 77 120 0.0 0.0 0.00 0.00 0.00 30 1013.6
20260906044227 77 119 0.0 0.0 0.00 0.00 0.00 30 1013.6
20260906043721 77 120 0.0 0.0 0.00 0.00 0.00 29 1013.6
20260906043221 78 119 0.0 0.0 0.00 0.00 0.00 29 1013.6
20260906042217 78 120 0.0 0.0 0.00 0.00 0.00 27 1012.6
20260906033156 79 103 0.0 0.0 0.00 0.00 0.00 25 1012.6
20260906032657 79 103 0.0 0.0 0.00 0.00 0.00 24 1012.6
20260906015632 80 338 0.0 0.0 0.00 0.00 0.00 20 1012.6
20260906013627 81 338 0.0 0.0 0.00 0.00 0.00 20 1011.6
20260906013127 81 337 0.0 0.0 0.00 0.00 0.00 20 1011.6
20260906011624 81 338 0.0 0.0 0.00 0.00 0.00 20 1011.6
20260906011125 81 337 0.0 0.0 0.00 0.00 0.00 19 1011.6
20260906010622 82 338 0.0 0.0 0.00 0.00 0.00 19 1011.6
20260906005623 82 337 0.0 0.0 0.00 0.00 0.00 19 1011.6
20260906004620 83 337 0.0 0.0 0.00 0.00 0.00 19 1011.6
20260906003617 83 337 0.0 0.0 0.00 0.00 0.00 19 1011.6
20260906002618 84 337 0.0 0.0 0.00 0.00 0.00 16 1011.6
20260906002115 84 338 0.0 0.0 0.00 0.00 0.00 16 1011.6
20260906000611 86 337 0.0 0.0 0.00 0.00 0.00 16 1011.6
20260906000112 86 337 0.0 0.0 0.00 0.00 0.00 13 1011.6
20260905235612 86 337 0.0 0.0 0.00 0.00 0.00 13 1011.6
20260905234109 87 337 0.0 0.0 0.00 0.00 0.00 13 1011.6
20260905232607 89 338 0.0 0.0 0.00 0.00 0.00 12 1011.6
20260905231604 90 337 0.0 0.0 0.00 0.00 0.00 12 1011.6
20260905220041 94 337 0.0 0.0 0.00 0.00 0.00 11 1011.6
20260905211027 96 337 0.0 0.0 0.00 0.00 0.00 11 1011.6
20260905205521 96 318 0.0 0.0 0.00 0.00 0.00 11 1012.6
20260905204518 96 64 0.0 0.0 0.00 0.00 0.00 11 1012.6
20260905203012 98 110 0.0 0.0 0.00 0.00 0.00 10 1012.6
20260905200001 98 59 0.0 0.0 0.00 0.00 0.00 10 1012.6
20260905193959 99 326 0.0 0.0 0.00 0.00 0.00 10 1013.6
20260905184448 97 341 0.0 0.0 0.00 0.00 0.00 11 1013.6
20260905183948 97 318 0.0 0.0 0.00 0.00 0.00 11 1013.6
20260905183443 96 166 0.0 0.0 0.00 0.00 0.00 11 1013.6
20260905181939 96 351 0.0 0.0 0.00 0.00 0.00 11 1014.6
20260905180938 96 37 0.0 0.0 0.00 0.00 0.00 11 1014.6
20260905173932 95 347 0.0 0.0 0.00 0.00 0.00 11 1014.6
20260905172430 94 9 0.0 0.0 0.00 0.00 0.00 11 1014.6
20260905135320 80 53 0.0 0.0 0.00 0.00 0.00 30 1015.6
20260905133815 79 53 0.0 0.0 0.00 0.00 0.00 31 1015.6
20260905124255 74 53 0.0 0.0 0.00 0.00 0.00 33 1015.6
20260905123755 74 53 0.0 0.0 0.00 0.00 0.00 33 1015.6